Location: Ni�n� Rev�ca
(48.9321°N, 19.2110°E)
Time: 07:08:04
(UTC+00:00)

Daily predictions for brighter satellites

Satellite Brightness Start Highest point End
(mag) Time Altitude Azimuth Time Altitude Azimuth Time Altitude Azimuth
STARLINK-43 3.4 16:35:47 10° WSW 16:39:29 85° NNW 16:43:12 10° ENE
Cosmos 1867 4.3 16:35:15 10° WSW 16:40:35 54° NW 16:45:59 10° NNE
SL-27 R/B 4.2 16:42:16 10° NNE 16:44:06 14° NE 16:45:54 10° E
USA 234 3.9 16:40:52 10° ENE 16:46:59 44° N 16:53:07 10° WNW
ADEOS Rocket 4.1 16:40:30 10° NNE 16:47:32 37° E 16:54:33 10° SSE
Ariane Rocket 4.0 16:44:25 10° ESE 16:48:36 26° ENE 16:52:47 10° N
CSL-04 Rocket 3.8 16:44:10 10° SE 16:49:32 55° ENE 16:54:55 10° N
YAOGAN 1 2.6 16:47:58 10° SSE 16:52:12 57° ENE 16:56:28 10° N
Cosmos 2278 Rocket 2.6 16:47:05 10° SW 16:52:42 68° WNW 16:58:23 10° NNE
SKYMED 2 3.5 16:50:44 10° NNE 16:55:05 72° ESE 16:59:26 10° S
Cosmos 968 Rocket 3.6 16:50:03 10° NNW 16:55:16 87° WSW 17:00:29 10° SSE
ARGOS 4.4 16:53:02 10° ESE 16:56:56 21° ENE 17:00:50 10° N
NOAA 11 4.2 16:52:52 10° SSE 16:58:16 68° ENE 17:03:41 10° N
CSL-04 Debris 4.2 16:54:18 10° SSE 16:59:40 66° ENE 17:05:07 10° N
Meteor 1-10 Rocket 4.3 16:55:54 10° N 17:01:30 56° ENE 17:06:58 10° SSE
Cosmos 2173 Rocket 4.0 16:55:19 10° S 17:01:40 79° E 17:08:05 10° NNE
Cosmos 1633 Rocket 4.0 16:59:37 10° SE 17:03:09 25° E 17:06:42 10° NNE
Cosmos 1666 Rocket 4.3 17:01:07 10° SSE 17:05:04 32° E 17:09:02 10° NNE
STARLINK-48 3.6 17:01:50 10° SW 17:05:40 59° SSE 17:08:46 15° ENE
Cosmos 1782 3.0 17:01:51 10° NNW 17:05:52 76° W 17:09:52 10° S
Abrixas rocket 3.7 17:04:19 10° W 17:06:57 29° SSW 17:09:35 10° SE
Lacrosse 4 Rocket 1.8 17:03:00 10° S 17:06:58 43° ESE 17:11:04 10° NE
SJ-6B 4.4 17:10:17 15° ENE 17:10:39 15° ENE 17:12:52 10° NNE
Cosmos 44 4.3 17:07:43 10° NNW 17:11:21 25° NE 17:13:43 16° ENE
SL-4 R/B 2.5 17:09:02 10° WNW 17:13:49 70° SSW 17:18:08 11° SE
Okean-O 4.1 17:09:49 10° S 17:14:01 41° W 17:18:15 10° NNW
Cosmos 1503 Rocket 4.3 17:09:51 10° NNW 17:15:10 73° WSW 17:20:23 10° SSE
Cosmos 1862 3.5 17:12:29 10° SSE 17:16:19 46° E 17:20:09 10° NNE
Cosmos 2100 Rocket 4.2 17:10:07 10° SSW 17:16:29 79° W 17:22:51 10° N
Cosmos 1633 2.4 17:14:02 10° S 17:17:37 83° E 17:21:15 10° N
CENTAUR R/B 4.2 17:12:44 10° WNW 17:18:29 27° N 17:25:00 10° NE
Meteor 2-6 Rocket 4.2 17:13:30 10° NNW 17:19:11 87° E 17:24:40 10° SSE
FALCON 9 DEB 3.8 17:19:54 10° WNW 17:23:13 42° N 17:24:58 23° ENE
ATLAS 3B R/B 4.2 17:18:32 10° WNW 17:23:59 26° NNW 17:29:29 10° NE
STARLINK-26 3.1 17:23:06 10° SW 17:26:33 68° SSE 17:28:20 26° ENE
Cosmos 1943 Rocket 2.8 17:22:14 10° SSE 17:27:08 32° ESE 17:31:47 11° NE
Cosmos 2061 Rocket 4.1 17:22:42 10° S 17:29:09 88° E 17:35:35 10° N
deb Kosmos-1763 4.0 17:27:05 10° NNW 17:30:47 86° WSW 17:34:27 10° SSE
Cosmos 1459 Rocket 4.4 17:25:36 10° SSW 17:31:35 66° WNW 17:37:39 10° N
Cosmos 1607 4.0 17:27:27 10° NW 17:33:47 87° SW 17:40:10 10° SE
Cosmos 2297 3.7 17:30:45 10° SSW 17:36:25 88° ESE 17:42:07 10° NNE
STARLINK-29 3.8 17:33:24 10° WNW 17:36:42 43° N 17:37:51 30° ENE
STARLINK-75 3.8 17:33:53 10° SSW 17:37:05 37° SE 17:37:50 32° ESE
USA 116 3.9 17:36:11 10° N 17:39:48 71° WNW 17:43:53 10° SSW
STARLINK-33 3.5 17:37:01 10° SW 17:40:06 41° SE 17:40:37 37° ESE
STARLINK-74 4.5 17:36:56 10° SSW 17:40:27 29° SE 17:41:07 28° ESE
Cosmos 1725 Rocket 3.9 17:34:49 10° S 17:40:59 85° E 17:47:13 10° N
STARLINK-22 3.9 17:38:30 10° SSW 17:41:38 33° SE 17:41:59 32° SE
CZ-2D R/B 4.1 17:38:06 10° S 17:41:54 53° W 17:45:44 10° NNW
STARLINK-39 4.4 17:38:30 10° SSW 17:42:02 30° SE 17:42:40 29° ESE
STARLINK-66 3.4 17:39:04 10° SW 17:42:12 43° SE 17:42:41 40° ESE
CZ-4 R/B 3.2 17:38:43 10° SSW 17:42:35 35° W 17:46:28 10° NNW
STARLINK-41 3.8 17:39:49 10° SSW 17:43:00 36° SE 17:43:24 35° SE
COSMO-SKYMED 1 4.0 17:38:59 10° N 17:43:03 39° WNW 17:47:05 10° SW
STARLINK-31 4.4 17:40:09 10° SSW 17:43:43 31° SE 17:44:17 30° ESE
STARLINK-55 3.3 17:40:45 10° SW 17:43:53 45° SSE 17:44:20 42° ESE
Cosmos 1470 Rocket 4.0 17:40:53 10° SSE 17:44:50 36° E 17:48:51 10° NNE
STARLINK-69 4.3 17:41:48 10° SSW 17:45:27 34° SE 17:46:05 32° ESE
STARLINK-28 3.2 17:42:20 10° SW 17:45:30 50° SSE 17:45:57 45° ESE
STARLINK-52 3.7 17:42:26 10° WNW 17:45:44 43° N 17:46:31 36° NE
Cosmos 1805 Rocket 4.3 17:41:32 10° SSW 17:45:51 56° WNW 17:50:10 10° N
STARLINK-21 4.3 17:43:25 10° SSW 17:47:02 33° SE 17:47:31 32° SE
Cosmos 2285 Rocket 4.2 17:41:15 10° NNW 17:47:24 49° ENE 17:51:28 21° SE
Cosmos 1777 Rocket 3.9 17:42:09 10° NNW 17:47:28 71° ENE 17:52:30 11° SSE
STARLINK-45 4.2 17:45:09 10° SSW 17:48:51 36° SE 17:49:24 35° ESE
Sich 1 3.3 17:45:04 10° SSW 17:49:21 69° W 17:53:38 10° N
NOSS 3-1 (C) 3.5 17:44:07 10° SSW 17:49:24 50° ESE 17:53:25 21° NE
Cosmos 1862 Rocket 3.4 17:45:13 10° N 17:49:31 62° ENE 17:53:49 10° SSE
Cosmos 1939 Rocket 4.1 17:45:59 10° S 17:49:56 44° W 17:53:56 10° NNW
Cosmos 1812 2.6 17:46:12 10° N 17:50:05 90° W 17:53:58 10° S
STARLINK-70 4.2 17:46:44 10° SSW 17:50:26 36° SE 17:50:53 35° SE
Tsikada Rocket 4.2 17:44:24 10° N 17:50:47 80° W 17:57:10 10° S
STARLINK-76 4.2 17:48:18 10° SSW 17:51:59 35° SE 17:52:18 35° SE
Cosmos 1707 Rocket 4.2 17:48:30 10° NNW 17:52:52 58° W 17:57:15 10° S
USA 267 4.1 17:51:35 26° ESE 17:53:11 29° SE 17:58:41 10° S
STARLINK-58 3.8 17:49:55 10° SSW 17:53:15 39° SE 17:53:17 39° SE
Cosmos 2369 Rocket 2.5 17:48:12 10° S 17:53:26 41° ESE 17:56:25 23° NE
STARLINK-23 4.2 17:49:55 10° SSW 17:53:37 36° SE 17:53:53 36° SE
STARLINK-62 3.7 17:51:42 10° SW 17:55:03 41° SE 17:55:03 41° SE
STARLINK-32 4.1 17:51:33 10° SSW 17:55:17 37° SE 17:55:29 37° SE
STARLINK-34 3.7 17:53:02 10° SW 17:56:20 42° SSE 17:56:20 42° SSE
STARLINK-40 4.1 17:53:09 10° SSW 17:56:53 38° SE 17:57:03 38° SE
Meteor 1-27 Rocket 3.7 17:52:02 10° NNW 17:57:36 86° W 18:03:11 10° S
Lacrosse 5 rocket 2.7 17:53:44 10° W 17:57:56 38° NNW 18:00:15 22° NE
STARLINK-44 4.1 17:54:45 10° SSW 17:58:31 39° SE 17:58:37 39° SE
STARLINK-37 4.0 17:56:23 10° SW 18:00:12 42° SE 18:00:19 42° SE
STARLINK-42 3.3 17:57:13 10° SW 18:00:11 51° SSE 18:00:11 51° SSE
STARLINK-36 4.0 17:58:02 10° SW 18:01:49 41° SE 18:01:49 41° SE
STARLINK-68 3.9 17:59:49 10° SW 18:03:39 45° SE 18:03:41 45° SE
Orbus 7S? 4.0 17:55:29 10° SW 18:03:41 85° NW 18:05:19 38° NE
STARLINK-80 3.8 18:00:49 10° W 18:04:36 56° NNW 18:05:24 45° NNE
STARLINK-63 3.9 18:01:23 10° SW 18:05:09 45° SSE 18:05:09 45° SSE
STARLINK-35 4.0 18:02:58 10° SW 18:06:37 44° SSE 18:06:37 44° SSE
IRS-1A Rocket 4.3 18:02:53 10° SSE 18:08:26 82° WSW 18:13:59 10° NNW
STARLINK-51 3.9 18:04:36 10° SW 18:08:14 45° SSE 18:08:14 45° SSE
CZ-2C R/B 3.3 18:03:48 14° SSE 18:08:48 66° ENE 18:14:31 10° N
STARLINK-30 3.9 18:06:14 10° SW 18:09:48 46° SSE 18:09:48 46° SSE
H-2A R/B 2.0 18:05:15 10° SSE 18:10:33 79° ENE 18:16:01 10° NNW
STARLINK-72 3.9 18:07:52 10° SW 18:11:24 47° SSE 18:11:24 47° SSE
STARLINK-60 3.3 18:09:30 10° WNW 18:12:25 66° NW 18:12:25 66° NW
STARLINK-50 3.9 18:09:30 10° SW 18:12:59 47° SSE 18:12:59 47° SSE
SL-08 RB Rocket 3.8 18:14:39 52° ENE 18:14:39 52° ENE 18:18:55 10° N
STARLINK-59 3.9 18:11:12 10° SW 18:14:42 50° S 18:14:42 50° S
STARLINK-56 4.0 18:12:46 10° SW 18:16:09 48° S 18:16:09 48° S
STARLINK-43 4.1 18:14:08 10° WNW 18:17:42 43° N 18:17:45 43° N
STARLINK-73 4.0 18:14:24 10° SW 18:17:44 48° S 18:17:44 48° S
SL-27 R/B 3.1 18:16:15 10° NNW 18:19:32 51° WSW 18:19:54 48° SW
STARLINK-38 4.0 18:16:03 10° SW 18:19:21 48° S 18:19:21 48° S
STARLINK-65 4.0 18:17:42 10° SW 18:20:57 48° S 18:20:57 48° S
STARLINK-53 4.0 18:19:26 10° SW 18:22:40 50° SSW 18:22:40 50° SSW
STARLINK-64 4.0 18:20:50 10° SW 18:23:30 46° SW 18:23:30 46° SW
Ariane Rocket 3.8 18:22:18 10° S 18:27:16 52° W 18:32:16 10° NNW
Okean 1-7 4.4 18:24:52 10° N 18:26:56 26° NNE 18:26:56 26° NNE
USA 234 3.3 18:27:26 44° E 18:29:28 63° NNE 18:35:54 10° NW
SJ 16-02 3.1 18:26:24 10° N 18:28:15 21° NNE 18:28:15 21° NNE
Cosmos 921 Rocket 3.4 18:28:07 10° SSW 18:32:36 65° WNW 18:35:46 19° NNE
ADEOS Rocket 4.1 18:25:46 10° N 18:33:15 60° WNW 18:40:51 10° SW
Cosmos 2297 Rocket 4.1 18:30:13 10° N 18:33:07 16° NNE 18:33:07 16° NNE
MetOp-A 4.0 18:34:12 65° E 18:34:23 65° ENE 18:39:43 10° N
STARLINK-61 4.0 18:30:49 10° WSW 18:33:58 56° WSW 18:33:58 56° WSW
Cosmos 2233 Rocket 4.5 18:30:15 10° SSW 18:36:17 60° WNW 18:42:25 10° N
ARGOS 3.2 18:32:57 21° S 18:36:37 76° WSW 18:42:05 10° NNW
USA 229 DEB 3.6 18:30:28 10° SW 18:37:04 86° NW 18:40:52 29° NE
USA 229 3.6 18:30:35 10° SW 18:37:10 87° NW 18:40:55 30° NE
Meteor 1-25 Rocket 4.4 18:36:41 10° S 18:43:28 56° NE 18:48:02 10° NNE
NOSS 3-1 (A) 3.2 18:38:35 10° SSW 18:44:06 73° SE 18:44:29 71° E
SJ-6B 3.9 18:45:54 40° NW 18:45:54 40° NW 18:48:36 10° NNW
Cosmos 1072 Rocket 4.4 18:39:21 10° S 18:45:44 76° E 18:52:05 10° NNE
Lacrosse 4 Rocket 3.3 18:42:08 10° WSW 18:45:49 28° NW 18:47:52 19° N
SPOT 3 Rocket 3.6 18:50:00 63° SSW 18:50:47 76° WSW 18:56:01 10° NNW
Cosmos 2227 Rocket 4.1 18:47:34 10° N 18:50:10 17° NNE 18:50:10 17° NNE
Cosmos 44 3.6 18:48:33 10° NW 18:52:10 55° WNW 18:52:10 55° WNW
SL-4 R/B 4.3 18:49:33 10° W 18:52:56 20° SW 18:53:46 19° SSW
Resurs 01 Rocket 3.4 18:56:16 24° N 18:56:16 24° N 18:58:06 10° N
Cosmos 724 4.3 18:49:45 10° NW 18:55:32 70° WSW 18:56:12 63° SSW
Cosmos 1932 4.4 18:53:31 10° NW 19:00:08 88° SW 19:00:43 76° SSE
Cosmos 1513 Rocket 4.3 18:58:51 10° S 19:04:55 87° W 19:11:06 10° N
Cosmos 1943 Rocket 3.0 19:05:20 10° SW 19:10:43 47° NW 19:13:26 27° N
CENTAUR R/B 4.0 19:05:01 10° NW 19:11:33 32° NNE 19:12:43 31° NE
Cosmos 1891 Rocket 4.5 19:06:05 10° SSW 19:12:13 77° W 19:18:32 10° N
ATLAS 3B R/B 4.1 19:11:36 10° NW 19:16:56 24° NNE 19:17:39 24° NNE
Timation 2 Rocket 4.4 19:29:39 10° NNW 19:35:24 65° NNW 19:35:24 65° NNW
USA 267 3.9 19:38:57 47° SW 19:38:57 47° SW 19:43:22 10° SW
Cosmos 2369 Rocket 3.4 19:32:11 10° WSW 19:37:29 40° NW 19:38:21 38° NNW
Lacrosse 5 rocket 3.9 19:34:01 10° WNW 19:35:54 21° NW 19:35:54 21° NW
NOSS 3-1 (C) 4.3 19:34:52 10° WSW 19:40:23 44° NNW 19:40:53 43° NNW
SJ 16-02 4.4 20:04:57 10° NW 20:05:15 12° NW 20:05:15 12° NW
USA 234 4.3 20:14:46 40° W 20:14:46 40° W 20:19:00 10° WNW
Cosmos 2297 Rocket 4.4 20:13:23 10° NNW 20:14:56 19° NNW 20:14:56 19° NNW
CENTAUR R/B 4.3 20:55:55 10° NW 20:59:54 34° NNW 20:59:54 34° NNW
